Time,TemperatureF,DewpointF,PressureIn,WindDirection,WindDirectionDegrees,WindSpeedMPH,WindSpeedGustMPH,Humidity,HourlyPrecipIn,Conditions,Clouds,dailyrainin,SoftwareType,DateUTC
2013-09-22 00:02:00,-999.0,-99.9,29.83,South,170,6.0,8.0,-999,-99.99,,,-99.99,,2013-09-22 04:02:00,
2013-09-22 00:14:00,76.0,70.0,29.83,South,170,6.0,8.0,81,-99.99,,,-99.99,,2013-09-22 04:14:00,
2013-09-22 00:23:00,76.0,69.0,29.83,South,170,7.0,11.0,79,-99.99,,,-99.99,,2013-09-22 04:23:00,
2013-09-22 00:44:00,76.0,69.0,29.83,SSE,161,7.0,11.0,77,-99.99,,,-99.99,,2013-09-22 04:44:00,
2013-09-22 00:54:00,76.0,69.0,29.83,SSE,162,6.0,10.0,78,-99.99,,,-99.99,,2013-09-22 04:54:00,
2013-09-22 01:13:00,75.0,69.0,29.83,SSE,164,6.0,10.0,79,-99.99,,,-99.99,,2013-09-22 05:13:00,
2013-09-22 01:53:00,75.0,68.0,29.82,South,172,6.0,9.0,78,-99.99,,,-99.99,,2013-09-22 05:53:00,
2013-09-22 02:12:00,75.0,68.0,29.82,SSE,159,6.0,10.0,78,-99.99,,,-99.99,,2013-09-22 06:12:00,
2013-09-22 02:22:00,74.0,68.0,29.82,SE,145,5.0,8.0,80,-99.99,,,-99.99,,2013-09-22 06:22:00,
2013-09-22 02:32:00,74.0,68.0,29.82,SE,145,5.0,8.0,80,-99.99,,,-99.99,,2013-09-22 06:32:00,
2013-09-22 02:52:00,73.0,68.0,29.82,SE,141,2.0,4.0,84,-99.99,,,-99.99,,2013-09-22 06:52:00,
2013-09-22 03:12:00,72.0,68.0,29.82,SSE,151,2.0,4.0,85,-99.99,,,-99.99,,2013-09-22 07:12:00,
2013-09-22 03:22:00,73.0,68.0,29.81,SSE,151,2.0,4.0,86,-99.99,,,-99.99,,2013-09-22 07:22:00,
2013-09-22 03:42:00,72.0,68.0,29.81,SE,138,3.0,4.0,87,-99.99,,,-99.99,,2013-09-22 07:42:00,
2013-09-22 03:52:00,72.0,69.0,29.80,SE,132,2.0,2.0,88,-99.99,,,-99.99,,2013-09-22 07:52:00,
2013-09-22 04:12:00,73.0,69.0,29.80,SSE,168,3.0,4.0,88,-99.99,,,-99.99,,2013-09-22 08:12:00,
2013-09-22 04:22:00,73.0,70.0,29.80,South,181,4.0,5.0,89,-99.99,,,-99.99,,2013-09-22 08:22:00,
2013-09-22 04:32:00,73.0,70.0,29.80,South,181,4.0,5.0,89,-99.99,,,-99.99,,2013-09-22 08:32:00,
2013-09-22 04:52:00,74.0,70.0,29.79,South,188,5.0,8.0,86,-99.99,,,-99.99,,2013-09-22 08:52:00,
2013-09-22 05:11:00,75.0,70.0,29.79,South,186,4.0,6.0,84,-99.99,,,-99.99,,2013-09-22 09:11:00,
2013-09-22 05:22:00,75.0,70.0,29.79,South,186,3.0,4.0,85,-99.99,,,-99.99,,2013-09-22 09:22:00,
2013-09-22 05:43:00,75.0,70.0,29.79,South,175,3.0,4.0,86,-99.99,,,-99.99,,2013-09-22 09:43:00,
2013-09-22 05:54:00,75.0,71.0,29.79,SSW,196,2.0,4.0,87,-99.99,,,-99.99,,2013-09-22 09:54:00,
2013-09-22 06:12:00,74.0,71.0,29.79,South,182,3.0,4.0,88,-99.99,,,-99.99,,2013-09-22 10:12:00,
2013-09-22 06:23:00,74.0,71.0,29.79,SSE,168,4.0,5.0,88,-99.99,,,-99.99,,2013-09-22 10:23:00,
2013-09-22 06:33:00,74.0,71.0,29.79,SSE,168,4.0,5.0,88,-99.99,,,-99.99,,2013-09-22 10:33:00,
2013-09-22 06:53:00,74.0,70.0,29.79,SE,134,2.0,3.0,89,-99.99,,,-99.99,,2013-09-22 10:53:00,
2013-09-22 07:12:00,73.0,70.0,29.79,SE,139,2.0,3.0,90,-99.99,,,-99.99,,2013-09-22 11:12:00,
2013-09-22 07:52:00,73.0,70.0,29.79,SE,126,2.0,3.0,90,-99.99,,,-99.99,,2013-09-22 11:52:00,
2013-09-22 08:12:00,73.0,70.0,29.79,SE,127,3.0,4.0,91,-99.99,,,-99.99,,2013-09-22 12:12:00,
2013-09-22 08:22:00,74.0,71.0,29.80,SE,142,3.0,5.0,91,-99.99,,,-99.99,,2013-09-22 12:22:00,
2013-09-22 08:32:00,74.0,71.0,29.80,SE,142,3.0,5.0,91,-99.99,,,-99.99,,2013-09-22 12:32:00,
2013-09-22 08:52:00,74.0,71.0,29.81,SE,141,2.0,3.0,90,-99.99,,,-99.99,,2013-09-22 12:52:00,
2013-09-22 09:12:00,75.0,72.0,29.81,SE,145,3.0,6.0,90,-99.99,,,-99.99,,2013-09-22 13:12:00,
2013-09-22 09:22:00,76.0,73.0,29.82,South,184,4.0,5.0,90,-99.99,,,-99.99,,2013-09-22 13:22:00,
2013-09-22 09:42:00,77.0,74.0,29.82,SSW,196,4.0,6.0,88,-99.99,,,-99.99,,2013-09-22 13:42:00,
2013-09-22 09:52:00,79.0,73.0,29.83,South,187,6.0,9.0,81,-99.99,,,-99.99,,2013-09-22 13:52:00,
2013-09-22 10:11:00,80.0,72.0,29.84,SSW,193,6.0,9.0,76,-99.99,,,-99.99,,2013-09-22 14:11:00,
2013-09-22 10:22:00,82.0,71.0,29.84,SSW,200,5.0,7.0,69,-99.99,,,-99.99,,2013-09-22 14:22:00,
2013-09-22 10:32:00,82.0,71.0,29.84,SSW,200,5.0,7.0,69,-99.99,,,-99.99,,2013-09-22 14:32:00,
2013-09-22 10:53:00,83.0,73.0,29.84,South,180,6.0,10.0,71,-99.99,,,-99.99,,2013-09-22 14:53:00,
2013-09-22 11:12:00,84.0,73.0,29.83,South,183,7.0,12.0,69,-99.99,,,-99.99,,2013-09-22 15:12:00,
2013-09-22 11:23:00,84.0,72.0,29.84,SSW,203,7.0,11.0,66,-99.99,,,-99.99,,2013-09-22 15:23:00,
2013-09-22 11:34:00,84.0,72.0,29.84,SSW,203,7.0,11.0,66,-99.99,,,-99.99,,2013-09-22 15:34:00,
2013-09-22 11:55:00,85.0,71.0,29.83,South,184,10.0,15.0,62,-99.99,,,-99.99,,2013-09-22 15:55:00,
2013-09-22 12:13:00,85.0,71.0,29.83,SSW,198,9.0,14.0,63,-99.99,,,-99.99,,2013-09-22 16:13:00,
2013-09-22 12:24:00,86.0,71.0,29.83,South,184,11.0,18.0,60,-99.99,,,-99.99,,2013-09-22 16:24:00,
2013-09-22 12:43:00,86.0,69.0,29.84,South,190,12.0,21.0,56,-99.99,,,-99.99,,2013-09-22 16:43:00,
2013-09-22 12:54:00,87.0,69.0,29.84,South,187,12.0,16.0,55,-99.99,,,-99.99,,2013-09-22 16:54:00,
2013-09-22 13:12:00,87.0,69.0,29.83,SSW,192,10.0,16.0,54,-99.99,,,-99.99,,2013-09-22 17:12:00,
2013-09-22 13:23:00,87.0,69.0,29.83,SW,216,9.0,14.0,54,-99.99,,,-99.99,,2013-09-22 17:23:00,
2013-09-22 13:34:00,87.0,69.0,29.83,SW,216,9.0,14.0,54,-99.99,,,-99.99,,2013-09-22 17:34:00,
2013-09-22 13:53:00,88.0,68.0,29.82,SW,222,11.0,16.0,51,-99.99,,,-99.99,,2013-09-22 17:53:00,
2013-09-22 14:13:00,88.0,69.0,29.81,SSW,205,10.0,15.0,53,-99.99,,,-99.99,,2013-09-22 18:13:00,
2013-09-22 14:22:00,88.0,69.0,29.81,SSW,205,10.0,15.0,53,-99.99,,,-99.99,,2013-09-22 18:22:00,
2013-09-22 14:42:00,89.0,69.0,29.81,SSW,194,9.0,15.0,52,-99.99,,,-99.99,,2013-09-22 18:42:00,
2013-09-22 14:52:00,88.0,69.0,29.80,SSW,200,8.0,13.0,53,-99.99,,,-99.99,,2013-09-22 18:52:00,
2013-09-22 15:11:00,88.0,69.0,29.80,SSW,206,8.0,15.0,53,-99.99,,,-99.99,,2013-09-22 19:11:00,
2013-09-22 15:22:00,90.0,70.0,29.79,SW,217,8.0,12.0,51,-99.99,,,-99.99,,2013-09-22 19:22:00,
2013-09-22 15:32:00,90.0,70.0,29.79,SW,217,8.0,12.0,51,-99.99,,,-99.99,,2013-09-22 19:32:00,
2013-09-22 15:53:00,88.0,70.0,29.78,SW,216,7.0,12.0,55,-99.99,,,-99.99,,2013-09-22 19:53:00,
2013-09-22 16:03:00,88.0,70.0,29.78,SW,216,7.0,12.0,55,-99.99,,,-99.99,,2013-09-22 20:03:00,
2013-09-22 17:54:00,74.0,70.0,29.82,SE,132,7.0,12.0,88,-99.99,,,-99.99,,2013-09-22 21:54:00,
2013-09-22 18:14:00,75.0,72.0,29.81,WNW,303,8.0,15.0,90,-99.99,,,-99.99,,2013-09-22 22:14:00,
2013-09-22 18:24:00,75.0,72.0,29.81,WSW,251,6.0,9.0,89,-99.99,,,-99.99,,2013-09-22 22:24:00,
2013-09-22 18:34:00,75.0,72.0,29.81,WSW,251,6.0,9.0,89,-99.99,,,-99.99,,2013-09-22 22:34:00,
2013-09-22 18:54:00,76.0,72.0,29.81,ENE,58,2.0,3.0,90,-99.99,,,-99.99,,2013-09-22 22:54:00,
2013-09-22 19:12:00,75.0,72.0,29.81,SE,130,2.0,9.0,90,-99.99,,,-99.99,,2013-09-22 23:12:00,
2013-09-22 19:52:00,76.0,73.0,29.82,NNW,332,2.0,3.0,90,-99.99,,,-99.99,,2013-09-22 23:52:00,
2013-09-22 20:12:00,76.0,73.0,29.82,NNW,337,2.0,3.0,90,-99.99,,,-99.99,,2013-09-23 00:12:00,
2013-09-22 20:23:00,75.0,73.0,29.82,NNW,341,2.0,3.0,91,-99.99,,,-99.99,,2013-09-23 00:23:00,
2013-09-22 20:32:00,75.0,73.0,29.82,NNW,341,2.0,3.0,91,-99.99,,,-99.99,,2013-09-23 00:32:00,
2013-09-22 20:53:00,75.0,72.0,29.83,ESE,105,3.0,4.0,91,-99.99,,,-99.99,,2013-09-23 00:53:00,
2013-09-22 21:12:00,75.0,72.0,29.83,ENE,59,2.0,4.0,91,-99.99,,,-99.99,,2013-09-23 01:12:00,
2013-09-22 21:52:00,75.0,72.0,29.85,East,82,1.0,2.0,92,-99.99,,,-99.99,,2013-09-23 01:52:00,
2013-09-22 22:11:00,75.0,72.0,29.85,East,96,1.0,2.0,92,-99.99,,,-99.99,,2013-09-23 02:11:00,
2013-09-22 22:22:00,75.0,72.0,29.85,NNE,21,1.0,2.0,92,-99.99,,,-99.99,,2013-09-23 02:22:00,
2013-09-22 22:32:00,75.0,72.0,29.85,NNE,21,1.0,2.0,92,-99.99,,,-99.99,,2013-09-23 02:32:00,
2013-09-22 22:52:00,74.0,72.0,29.86,ESE,121,2.0,2.0,92,-99.99,,,-99.99,,2013-09-23 02:52:00,
2013-09-22 23:12:00,74.0,72.0,29.86,SE,136,2.0,3.0,92,-99.99,,,-99.99,,2013-09-23 03:12:00,
2013-09-22 23:23:00,74.0,72.0,29.87,SE,134,2.0,2.0,92,-99.99,,,-99.99,,2013-09-23 03:23:00,
2013-09-22 23:34:00,74.0,72.0,29.87,SE,134,2.0,2.0,92,-99.99,,,-99.99,,2013-09-23 03:34:00,
2013-09-22 23:54:00,74.0,72.0,29.87,East,86,1.0,1.0,92,-99.99,,,-99.99,,2013-09-23 03:54:00,